Terminal Aerodrome Forecast
Issued by NWS

Home | Current Version | Previous Version | Graphics & Text | Print | Product List | Glossary On
Versions: 1 2 3 4 5 6 7 8 9 10 11 12 13 14 15 16 17 18
000
FTUS43 KBIS 270300 AAA
TAFDIK
TAF AMD
KDIK 270316Z 2703/2724 32012KT P6SM FEW080
     FM271100 31006KT P6SM SCT035
     FM271400 33008KT P6SM SCT045
     FM271700 35010KT P6SM FEW220=

USA.gov is the U.S. government's official web portal to all federal, state and local government web resources and services.